• In Hungary
  • List of Countries
  • For 7 days
  • Water Temperature
  • Satellite Maps
  • Weather Map
  • News
  • Weather Widgets
  • user-avatar
    Login

    Hourly Weather Biala

    Today, 23 October, Tuesday

    Time Temperature Precipitation Wind Pressure Humidity
    00:00 +5°C° 0 mm 4 mps 761 mmHg 83%
    01:00 +4°C° 0 mm 4 mps 760 mmHg 84%
    02:00 +4°C° 0 mm 4 mps 759 mmHg 83%
    03:00 +5°C° 0 mm 5 mps 758 mmHg 81%
    04:00 +5°C° 0 mm 5 mps 757 mmHg 80%
    05:00 +4°C° 0.5 mm 6 mps 756 mmHg 80%
    06:00 +4°C° 0.5 mm 7 mps 755 mmHg 81%
    07:00 +4°C° 0.5 mm 8 mps 753 mmHg 81%
    08:00 +5°C° 1.2 mm 9 mps 752 mmHg 81%
    09:00 +5°C° 1.2 mm 9 mps 751 mmHg 82%
    10:00 +6°C° 1.2 mm 10 mps 750 mmHg 82%
    11:00 +6°C° 1.2 mm 10 mps 749 mmHg 83%
    12:00 +7°C° 1.2 mm 10 mps 748 mmHg 83%
    13:00 +8°C° 1.2 mm 10 mps 747 mmHg 84%
    14:00 +8°C° 1.5 mm 10 mps 746 mmHg 84%
    15:00 +10°C° 1.5 mm 9 mps 745 mmHg 84%
    16:00 +10°C° 1.5 mm 9 mps 745 mmHg 83%
    17:00 +10°C° 0.9 mm 9 mps 744 mmHg 83%
    18:00 +10°C° 0.9 mm 9 mps 744 mmHg 82%
    19:00 +10°C° 0.9 mm 9 mps 744 mmHg 81%
    20:00 +10°C° 1 mm 9 mps 743 mmHg 81%
    21:00 +10°C° 1 mm 8 mps 743 mmHg 80%
    22:00 +9°C° 1 mm 8 mps 742 mmHg 80%
    23:00 +9°C° 0.6 mm 8 mps 742 mmHg 77%

    Tomorrow, 24 October, Wednesday

    Time Temperature Precipitation Wind Pressure Humidity
    00:00 +7°C° 0.6 mm 9 mps 742 mmHg 75%
    01:00 +7°C° 0.6 mm 9 mps 741 mmHg 72%
    02:00 +6°C° 0.1 mm 9 mps 742 mmHg 69%
    03:00 +6°C° 0.1 mm 9 mps 743 mmHg 66%
    04:00 +5°C° 0.1 mm 9 mps 743 mmHg 63%
    05:00 +5°C° 0.1 mm 8 mps 744 mmHg 62%
    06:00 +4°C° 0.1 mm 7 mps 745 mmHg 62%
    07:00 +4°C° 0.1 mm 6 mps 746 mmHg 61%
    08:00 +5°C° 0 mm 7 mps 746 mmHg 56%
    09:00 +5°C° 0 mm 9 mps 747 mmHg 50%
    10:00 +6°C° 0 mm 10 mps 748 mmHg 45%
    11:00 +7°C° 0 mm 10 mps 748 mmHg 44%
    12:00 +7°C° 0 mm 10 mps 749 mmHg 42%
    13:00 +7°C° 0 mm 10 mps 750 mmHg 41%
    14:00 +7°C° 0 mm 9 mps 750 mmHg 43%
    15:00 +6°C° 0 mm 8 mps 751 mmHg 45%
    16:00 +6°C° 0 mm 7 mps 751 mmHg 47%
    17:00 +5°C° 0 mm 6 mps 751 mmHg 51%
    18:00 +5°C° 0 mm 6 mps 752 mmHg 55%
    19:00 +5°C° 0 mm 5 mps 752 mmHg 59%
    20:00 +5°C° 0 mm 5 mps 753 mmHg 61%
    21:00 +5°C° 0 mm 5 mps 753 mmHg 63%
    22:00 +4°C° 0 mm 4 mps 753 mmHg 65%
    23:00 +4°C° 0 mm 4 mps 753 mmHg 69%

    Day after tomorrow, 25 October, Thursday

    Time Temperature Precipitation Wind Pressure Humidity
    00:00 +4°C° 0 mm 4 mps 752 mmHg 73%
    01:00 +3°C° 0 mm 5 mps 752 mmHg 77%
    02:00 +3°C° 0.3 mm 5 mps 751 mmHg 80%
    03:00 +3°C° 0.3 mm 5 mps 750 mmHg 83%
    04:00 +5°C° 0.3 mm 5 mps 749 mmHg 86%
    05:00 +5°C° 0.7 mm 6 mps 748 mmHg 86%
    06:00 +6°C° 0.7 mm 7 mps 748 mmHg 87%
    07:00 +9°C° 0.7 mm 8 mps 747 mmHg 88%
    08:00 +9°C° 0.2 mm 8 mps 746 mmHg 84%
    09:00 +10°C° 0.2 mm 8 mps 746 mmHg 81%
    10:00 +10°C° 0.2 mm 9 mps 746 mmHg 78%
    11:00 +10°C° 0.1 mm 9 mps 746 mmHg 76%
    12:00 +8°C° 0.1 mm 9 mps 746 mmHg 74%
    13:00 +8°C° 0.1 mm 9 mps 747 mmHg 72%
    14:00 +9°C° 0.1 mm 8 mps 747 mmHg 72%
    15:00 +9°C° 0.1 mm 8 mps 747 mmHg 72%
    16:00 +8°C° 0.1 mm 7 mps 747 mmHg 71%
    17:00 +8°C° 0 mm 7 mps 748 mmHg 74%
    18:00 +8°C° 0 mm 6 mps 748 mmHg 76%
    19:00 +7°C° 0 mm 5 mps 749 mmHg 79%
    20:00 +7°C° 0 mm 5 mps 749 mmHg 80%
    21:00 +7°C° 0 mm 5 mps 749 mmHg 81%
    22:00 +6°C° 0 mm 5 mps 749 mmHg 82%
    23:00 +6°C° 0 mm 4 mps 749 mmHg 83%

    26 October, Friday

    Time Temperature Precipitation Wind Pressure Humidity
    00:00 +6°C° 0 mm 4 mps 749 mmHg 84%
    01:00 +6°C° 0 mm 4 mps 749 mmHg 86%
    02:00 +5°C° 0 mm 4 mps 749 mmHg 87%
    03:00 +5°C° 0 mm 4 mps 749 mmHg 88%
    04:00 +5°C° 0 mm 4 mps 749 mmHg 90%
    05:00 +5°C° 0 mm 4 mps 749 mmHg 90%
    06:00 +5°C° 0 mm 3 mps 749 mmHg 91%
    07:00 +5°C° 0 mm 3 mps 748 mmHg 91%
    08:00 +7°C° 0 mm 3 mps 748 mmHg 87%
    09:00 +8°C° 0 mm 3 mps 748 mmHg 82%
    10:00 +9°C° 0 mm 3 mps 748 mmHg 78%
    11:00 +9°C° 0.1 mm 3 mps 748 mmHg 78%
    12:00 +10°C° 0.1 mm 4 mps 747 mmHg 78%
    13:00 +10°C° 0.1 mm 4 mps 747 mmHg 78%
    14:00 +10°C° 0.1 mm 4 mps 746 mmHg 81%
    15:00 +10°C° 0.1 mm 4 mps 746 mmHg 83%
    16:00 +10°C° 0.1 mm 3 mps 745 mmHg 86%
    17:00 +10°C° 0.1 mm 4 mps 745 mmHg 86%
    18:00 +10°C° 0.1 mm 4 mps 744 mmHg 85%
    19:00 +10°C° 0.1 mm 4 mps 744 mmHg 85%
    20:00 +10°C° 0 mm 4 mps 743 mmHg 85%
    21:00 +10°C° 0 mm 4 mps 743 mmHg 85%
    22:00 +8°C° 0 mm 4 mps 743 mmHg 85%
    23:00 +8°C° 0.1 mm 4 mps 742 mmHg 85%

    27 October, Saturday

    Time Temperature Precipitation Wind Pressure Humidity
    00:00 +8°C° 0.1 mm 4 mps 742 mmHg 85%
    01:00 +8°C° 0.1 mm 5 mps 742 mmHg 84%
    02:00 +8°C° 0.1 mm 5 mps 742 mmHg 83%
    03:00 +7°C° 0.1 mm 5 mps 742 mmHg 81%
    04:00 +7°C° 0.1 mm 5 mps 742 mmHg 79%
    05:00 +6°C° 0 mm 5 mps 742 mmHg 79%
    06:00 +6°C° 0 mm 5 mps 742 mmHg 79%
    07:00 +5°C° 0 mm 5 mps 742 mmHg 79%
    08:00 +4°C° 0 mm 6 mps 742 mmHg 75%
    09:00 +5°C° 0 mm 6 mps 743 mmHg 71%
    10:00 +6°C° 0 mm 7 mps 743 mmHg 68%
    11:00 +6°C° 0 mm 7 mps 743 mmHg 64%
    12:00 +6°C° 0 mm 7 mps 743 mmHg 61%
    13:00 +8°C° 0 mm 7 mps 743 mmHg 58%
    14:00 +7°C° 0 mm 6 mps 743 mmHg 57%
    15:00 +7°C° 0 mm 5 mps 743 mmHg 57%
    16:00 +7°C° 0 mm 5 mps 743 mmHg 57%
    17:00 +6°C° 0 mm 4 mps 743 mmHg 58%
    18:00 +6°C° 0 mm 4 mps 743 mmHg 59%
    19:00 +6°C° 0 mm 4 mps 744 mmHg 60%
    20:00 +5°C° 0 mm 4 mps 744 mmHg 61%
    21:00 +5°C° 0 mm 4 mps 744 mmHg 63%
    22:00 +5°C° 0 mm 3 mps 744 mmHg 64%
    23:00 +4°C° 0 mm 3 mps 744 mmHg 66%

    28 October, Sunday

    Time Temperature Precipitation Wind Pressure Humidity
    00:00 +4°C° 0 mm 3 mps 744 mmHg 68%
    01:00 +4°C° 0 mm 3 mps 744 mmHg 69%
    02:00 +5°C° 0 mm 2 mps 744 mmHg 71%
    03:00 +4°C° 0 mm 2 mps 744 mmHg 73%
    04:00 +4°C° 0 mm 2 mps 743 mmHg 75%
    05:00 +4°C° 0 mm 2 mps 744 mmHg 77%
    06:00 +3°C° 0 mm 2 mps 744 mmHg 79%
    07:00 +3°C° 0 mm 2 mps 744 mmHg 82%
    08:00 +4°C° 0 mm 2 mps 744 mmHg 78%
    09:00 +4°C° 0 mm 3 mps 744 mmHg 75%
    10:00 +5°C° 0 mm 3 mps 745 mmHg 71%
    11:00 +5°C° 0 mm 4 mps 745 mmHg 67%
    12:00 +6°C° 0 mm 4 mps 745 mmHg 62%
    13:00 +7°C° 0 mm 5 mps 745 mmHg 58%
    14:00 +6°C° 0 mm 4 mps 746 mmHg 59%
    15:00 +6°C° 0 mm 4 mps 746 mmHg 59%
    16:00 +7°C° 0 mm 3 mps 746 mmHg 60%
    17:00 +5°C° 0 mm 4 mps 747 mmHg 62%
    18:00 +4°C° 0 mm 4 mps 747 mmHg 64%
    19:00 +4°C° 0 mm 4 mps 748 mmHg 66%
    20:00 +3°C° 0.1 mm 5 mps 748 mmHg 69%
    21:00 +3°C° 0.1 mm 5 mps 748 mmHg 72%
    22:00 +3°C° 0.1 mm 6 mps 749 mmHg 75%
    23:00 +2°C° 0.1 mm 5 mps 749 mmHg 77%

    29 October, Monday

    Time Temperature Precipitation Wind Pressure Humidity
    00:00 +2°C° 0.1 mm 5 mps 750 mmHg 79%
    01:00 +2°C° 0.1 mm 5 mps 750 mmHg 81%
    02:00 +3°C° 0 mm 4 mps 750 mmHg 81%
    03:00 +1°C° 0 mm 4 mps 751 mmHg 82%
    04:00 +2°C° 0 mm 3 mps 751 mmHg 83%
    05:00 +1°C° 0 mm 3 mps 751 mmHg 85%
    06:00 +1°C° 0 mm 3 mps 752 mmHg 86%
    07:00 0°C° 0 mm 3 mps 752 mmHg 87%
    08:00 +1°C° 0 mm 3 mps 753 mmHg 84%
    09:00 +2°C° 0 mm 3 mps 753 mmHg 82%
    10:00 +3°C° 0 mm 3 mps 753 mmHg 79%
    11:00 +4°C° 0 mm 3 mps 753 mmHg 75%
    12:00 +5°C° 0 mm 3 mps 753 mmHg 71%
    13:00 +7°C° 0 mm 3 mps 754 mmHg 66%
    14:00 +6°C° 0 mm 2 mps 753 mmHg 67%
    15:00 +6°C° 0 mm 2 mps 753 mmHg 67%
    16:00 +7°C° 0 mm 1 mps 753 mmHg 68%
    17:00 +6°C° 0 mm 1 mps 753 mmHg 70%
    18:00 +6°C° 0 mm 1 mps 754 mmHg 72%
    19:00 +5°C° 0 mm 1 mps 754 mmHg 73%
    20:00 +5°C° 0 mm 1 mps 754 mmHg 75%
    21:00 +5°C° 0 mm 1 mps 754 mmHg 76%
    22:00 +5°C° 0 mm 1 mps 754 mmHg 77%
    23:00 +5°C° 0.1 mm 1 mps 753 mmHg 78%
    Show more